FW3268 Weather Reports


Display with metric or nautical units.
time (UTC)temp
F
wind
direction
speed
MPH
gust
MPH
rain 1hr
in
rain 24hr
in
rain mn
in
humidity
%
barometer
mb
20260506044502 45 62 0.0 0.0 0.08 1.51 0.05 93 1009.6
20260506043002 46 62 0.0 1.0 0.11 1.51 0.05 94 1009.6
20260506041501 46 44 0.0 0.0 0.13 1.49 0.03 94 1009.4
20260506040006 46 44 0.0 1.0 0.13 1.46 0.00 94 1009.6
20260506034501 46 44 0.0 0.0 0.13 1.43 1.43 94 1009.3
20260506033003 45 44 0.0 0.0 0.13 1.40 1.40 94 1009.4
20260506024501 46 44 0.0 1.0 0.19 1.30 1.30 94 1009.0
20260506021501 46 44 0.0 0.0 0.11 1.18 1.18 93 1009.2
20260506020005 46 44 0.0 1.0 0.10 1.15 1.15 93 1008.7
20260506014502 46 44 0.0 1.0 0.08 1.11 1.11 93 1008.3
20260506013002 46 44 0.0 2.0 0.07 1.09 1.09 93 1008.1
20260506011502 45 343 0.0 2.0 0.06 1.06 1.06 93 1008.0
20260506010004 45 343 0.0 0.0 0.06 1.05 1.05 93 1008.2
20260506004503 45 343 0.0 0.0 0.06 1.03 1.03 93 1008.3
20260506003003 46 343 0.0 0.0 0.06 1.01 1.01 93 1008.4
20260506001502 46 343 0.0 0.0 0.07 1.00 1.00 93 1008.1
20260506000005 46 343 0.0 0.0 0.07 0.98 0.98 93 1008.2
20260505234502 46 343 0.0 1.0 0.08 0.97 0.97 92 1007.9
20260505233001 46 343 0.0 1.0 0.07 0.95 0.95 92 1008.0
20260505230004 46 343 0.0 0.0 0.06 0.91 0.91 92 1008.5
20260505224502 46 343 0.0 0.0 0.05 0.89 0.89 92 1008.7
20260505223002 46 343 0.0 1.0 0.06 0.88 0.88 92 1008.5
20260505221502 46 343 0.0 0.0 0.08 0.88 0.88 92 1008.8
20260505214501 46 335 1.0 3.0 0.04 0.84 0.84 92 1008.7
20260505213001 46 345 2.0 5.0 0.03 0.82 0.82 91 1008.9
20260505210004 47 344 3.0 7.0 0.01 0.80 0.80 91 1008.5
20260505203002 47 343 2.0 4.0 0.01 0.79 0.79 89 1008.5
20260505200006 47 337 2.0 4.0 0.01 0.79 0.79 90 1008.0
20260505193001 49 330 1.0 3.0 0.03 0.78 0.78 91 1007.8
20260505191501 49 26 1.0 2.0 0.06 0.78 0.78 91 1007.9
20260505190004 49 29 1.0 3.0 0.09 0.78 0.78 91 1007.7
20260505184500 49 53 1.0 4.0 0.13 0.77 0.77 91 1007.9
20260505183001 49 352 0.0 2.0 0.14 0.75 0.75 90 1008.1
20260505174500 49 352 0.0 0.0 0.08 0.64 0.64 87 1008.4
20260505173002 49 352 0.0 0.0 0.05 0.60 0.60 85 1008.7
20260505171501 50 352 0.0 1.0 0.06 0.59 0.59 86 1008.5
20260505170004 50 352 0.0 2.0 0.05 0.57 0.57 87 1008.1
20260505164502 50 352 0.0 1.0 0.04 0.56 0.56 85 1008.4
20260505163000 50 352 1.0 2.0 0.04 0.55 0.55 84 1008.4
20260505161501 50 352 0.0 2.0 0.02 0.53 0.53 83 1008.8
20260505153001 51 333 2.0 3.0 0.03 0.51 0.51 87 1008.6
20260505151502 52 334 3.0 5.0 0.05 0.51 0.51 86 1008.8
20260505124500 56 247 10.0 14.0 0.00 0.45 0.45 90 1006.8
20260505123000 56 266 9.0 14.0 0.00 0.45 0.45 90 1007.0
20260505121500 56 246 9.0 13.0 0.00 0.45 0.45 91 1006.9
20260505120004 56 223 7.0 10.0 0.00 0.45 0.45 91 1006.4
20260505114501 55 214 6.0 9.0 0.00 0.45 0.45 90 1005.9
20260505113000 55 240 4.0 6.0 0.00 0.45 0.45 91 1005.8
20260505111501 55 246 5.0 8.0 0.00 0.45 0.45 91 1006.2
20260505101500 55 217 9.0 12.0 0.00 0.45 0.45 89 1005.5
20260505100004 55 217 7.0 11.0 0.00 0.45 0.45 89 1005.2
20260505094500 55 238 8.0 12.0 0.00 0.45 0.45 88 1004.9
20260505093000 55 238 7.0 10.0 0.00 0.45 0.45 88 1004.6
20260505091501 56 254 6.0 8.0 0.00 0.45 0.45 88 1004.4
20260505084500 56 224 6.0 11.0 0.00 0.45 0.45 86 1003.7
20260505083000 56 210 8.0 11.0 0.02 0.45 0.45 88 1003.5
20260505081502 56 167 13.0 19.0 0.03 0.45 0.45 89 1003.2
20260505080002 56 177 14.0 20.0 0.09 0.45 0.45 89 1003.9
20260505074500 56 150 15.0 22.0 0.15 0.45 0.45 88 1003.1
20260505072959 57 248 14.0 20.0 0.20 0.42 0.42 86 1005.3
20260505061459 56 219 4.0 6.0 0.11 0.18 0.18 90 1006.1